Time,TemperatureF,DewpointF,PressureIn,WindDirection,WindDirectionDegrees,WindSpeedMPH,WindSpeedGustMPH,Humidity,HourlyPrecipIn,Conditions,Clouds,dailyrainin,SoftwareType,DateUTC
2013-01-31 00:02:00,39.2,23.5,30.24,ESE,121,0.0,0.0,53,0.00,,,0.00,Wunderground v.1.15,2013-01-31 06:02:00,
2013-01-31 00:08:00,39.3,23.1,30.22,NE,53,0.0,0.0,52,0.00,,,0.00,Wunderground v.1.15,2013-01-31 06:08:00,
2013-01-31 00:14:00,40.0,22.8,30.21,NE,45,0.0,1.0,50,0.00,,,0.00,Wunderground v.1.15,2013-01-31 06:14:00,
2013-01-31 00:20:00,40.2,24.0,30.21,NE,46,0.0,0.0,52,0.00,,,0.00,Wunderground v.1.15,2013-01-31 06:20:00,
2013-01-31 00:26:00,40.4,23.2,30.20,NE,46,0.0,0.0,50,0.00,,,0.00,Wunderground v.1.15,2013-01-31 06:26:00,
2013-01-31 00:32:00,40.7,22.5,30.20,NE,45,0.0,0.0,48,0.00,,,0.00,Wunderground v.1.15,2013-01-31 06:32:00,
2013-01-31 00:38:00,40.8,22.6,30.20,NE,34,0.0,0.0,48,0.00,,,0.00,Wunderground v.1.15,2013-01-31 06:38:00,
2013-01-31 00:44:00,40.9,22.7,30.20,NE,34,0.0,1.0,48,0.00,,,0.00,Wunderground v.1.15,2013-01-31 06:44:00,
2013-01-31 00:50:00,40.8,23.1,30.19,NE,34,0.0,0.0,49,0.00,,,0.00,Wunderground v.1.15,2013-01-31 06:50:00,
2013-01-31 00:56:00,40.6,23.4,30.19,NE,34,0.0,0.0,50,0.00,,,0.00,Wunderground v.1.15,2013-01-31 06:56:00,
2013-01-31 01:02:00,40.3,23.6,30.19,NE,34,0.0,1.0,51,0.00,,,0.00,Wunderground v.1.15,2013-01-31 07:02:00,
2013-01-31 01:08:00,40.6,22.4,30.20,NE,34,0.0,1.0,48,0.00,,,0.00,Wunderground v.1.15,2013-01-31 07:08:00,
2013-01-31 01:14:00,40.3,24.5,30.20,ENE,72,0.0,1.0,53,0.00,,,0.00,Wunderground v.1.15,2013-01-31 07:14:00,
2013-01-31 01:20:00,38.7,23.5,30.21,SE,124,0.0,1.0,54,0.00,,,0.00,Wunderground v.1.15,2013-01-31 07:20:00,
2013-01-31 01:26:00,38.0,22.8,30.21,SW,236,0.0,1.0,54,0.00,,,0.00,Wunderground v.1.15,2013-01-31 07:26:00,
2013-01-31 01:32:00,37.9,22.7,30.21,WSW,239,0.0,1.0,54,0.00,,,0.00,Wunderground v.1.15,2013-01-31 07:32:00,
2013-01-31 01:38:00,37.9,23.2,30.21,WSW,238,0.0,1.0,55,0.00,,,0.00,Wunderground v.1.15,2013-01-31 07:38:00,
2013-01-31 01:44:00,38.1,23.3,30.20,WSW,238,0.0,1.0,55,0.00,,,0.00,Wunderground v.1.15,2013-01-31 07:44:00,
2013-01-31 01:50:00,38.1,24.2,30.20,WSW,238,0.0,1.0,57,0.00,,,0.00,Wunderground v.1.15,2013-01-31 07:50:00,
2013-01-31 01:56:00,37.9,23.6,30.20,WSW,238,0.0,1.0,56,0.00,,,0.00,Wunderground v.1.15,2013-01-31 07:56:00,
2013-01-31 02:02:00,37.9,24.0,30.20,WSW,240,0.0,2.0,57,0.00,,,0.00,Wunderground v.1.15,2013-01-31 08:02:00,
2013-01-31 02:08:00,38.2,23.9,30.20,NW,326,1.0,2.0,56,0.00,,,0.00,Wunderground v.1.15,2013-01-31 08:08:00,
2013-01-31 02:14:00,38.3,23.5,30.20,NW,326,0.0,1.0,55,0.00,,,0.00,Wunderground v.1.15,2013-01-31 08:14:00,
2013-01-31 02:20:00,38.3,23.5,30.20,NW,326,0.0,1.0,55,0.00,,,0.00,Wunderground v.1.15,2013-01-31 08:20:00,
2013-01-31 02:26:00,38.4,24.1,30.20,NW,326,0.0,1.0,56,0.00,,,0.00,Wunderground v.1.15,2013-01-31 08:26:00,
2013-01-31 02:32:00,38.0,23.7,30.20,NW,326,0.0,1.0,56,0.00,,,0.00,Wunderground v.1.15,2013-01-31 08:32:00,
2013-01-31 02:38:00,37.6,23.7,30.20,NW,326,0.0,1.0,57,0.00,,,0.00,Wunderground v.1.15,2013-01-31 08:38:00,
2013-01-31 02:44:00,37.0,23.2,30.20,NW,326,0.0,1.0,57,0.00,,,0.00,Wunderground v.1.15,2013-01-31 08:44:00,
2013-01-31 02:50:00,36.9,23.5,30.20,NW,326,0.0,1.0,58,0.00,,,0.00,Wunderground v.1.15,2013-01-31 08:50:00,
2013-01-31 02:56:00,36.3,23.3,30.20,NW,326,0.0,1.0,59,0.00,,,0.00,Wunderground v.1.15,2013-01-31 08:56:00,
2013-01-31 03:02:00,36.2,23.2,30.20,NW,326,0.0,1.0,59,0.00,,,0.00,Wunderground v.1.15,2013-01-31 09:02:00,
2013-01-31 03:08:00,36.4,23.4,30.21,NW,326,0.0,1.0,59,0.00,,,0.00,Wunderground v.1.15,2013-01-31 09:08:00,
2013-01-31 03:14:00,36.3,23.7,30.21,NW,326,0.0,0.0,60,0.00,,,0.00,Wunderground v.1.15,2013-01-31 09:14:00,
2013-01-31 03:20:00,36.2,23.6,30.21,NW,326,0.0,0.0,60,0.00,,,0.00,Wunderground v.1.15,2013-01-31 09:20:00,
2013-01-31 03:26:00,36.2,23.2,30.21,NNW,343,0.0,1.0,59,0.00,,,0.00,Wunderground v.1.15,2013-01-31 09:26:00,
2013-01-31 03:32:00,36.5,23.5,30.21,NW,320,0.0,0.0,59,0.00,,,0.00,Wunderground v.1.15,2013-01-31 09:32:00,
2013-01-31 03:38:00,36.7,23.3,30.21,NW,320,0.0,0.0,58,0.00,,,0.00,Wunderground v.1.15,2013-01-31 09:38:00,
2013-01-31 03:44:00,36.5,23.5,30.22,NW,321,0.0,0.0,59,0.00,,,0.00,Wunderground v.1.15,2013-01-31 09:44:00,
2013-01-31 03:50:00,35.9,23.7,30.21,NW,320,0.0,0.0,61,0.00,,,0.00,Wunderground v.1.15,2013-01-31 09:50:00,
2013-01-31 03:56:00,35.2,23.5,30.21,NW,321,0.0,0.0,62,0.00,,,0.00,Wunderground v.1.15,2013-01-31 09:56:00,
2013-01-31 04:02:00,34.7,24.1,30.22,NW,320,0.0,0.0,65,0.00,,,0.00,Wunderground v.1.15,2013-01-31 10:02:00,
2013-01-31 04:08:00,34.5,24.3,30.22,NW,321,0.0,0.0,66,0.00,,,0.00,Wunderground v.1.15,2013-01-31 10:08:00,
2013-01-31 04:14:00,34.5,24.3,30.22,NW,320,0.0,0.0,66,0.00,,,0.00,Wunderground v.1.15,2013-01-31 10:14:00,
2013-01-31 04:20:00,34.7,24.5,30.22,NW,321,0.0,0.0,66,0.00,,,0.00,Wunderground v.1.15,2013-01-31 10:20:00,
2013-01-31 04:26:00,35.4,23.7,30.23,NW,320,0.0,0.0,62,0.00,,,0.00,Wunderground v.1.15,2013-01-31 10:26:00,
2013-01-31 04:32:00,35.4,23.7,30.23,NW,321,0.0,0.0,62,0.00,,,0.00,Wunderground v.1.15,2013-01-31 10:32:00,
2013-01-31 04:38:00,35.1,24.5,30.23,NW,324,0.0,0.0,65,0.00,,,0.00,Wunderground v.1.15,2013-01-31 10:38:00,
2013-01-31 04:44:00,35.2,23.9,30.22,NW,325,0.0,0.0,63,0.00,,,0.00,Wunderground v.1.15,2013-01-31 10:44:00,
2013-01-31 04:50:00,34.9,24.3,30.23,NW,325,0.0,0.0,65,0.00,,,0.00,Wunderground v.1.15,2013-01-31 10:50:00,
2013-01-31 04:56:00,34.7,23.8,30.23,NW,325,0.0,0.0,64,0.00,,,0.00,Wunderground v.1.15,2013-01-31 10:56:00,
2013-01-31 05:02:00,34.7,24.5,30.23,NW,325,0.0,0.0,66,0.00,,,0.00,Wunderground v.1.15,2013-01-31 11:02:00,
2013-01-31 05:08:00,35.3,24.3,30.22,NW,325,0.0,0.0,64,0.00,,,0.00,Wunderground v.1.15,2013-01-31 11:08:00,
2013-01-31 05:14:00,35.4,23.7,30.23,NW,325,0.0,0.0,62,0.00,,,0.00,Wunderground v.1.15,2013-01-31 11:14:00,
2013-01-31 05:20:00,35.2,24.2,30.23,NW,325,0.0,0.0,64,0.00,,,0.00,Wunderground v.1.15,2013-01-31 11:20:00,
2013-01-31 05:26:00,34.7,24.1,30.23,NW,326,0.0,0.0,65,0.00,,,0.00,Wunderground v.1.15,2013-01-31 11:26:00,
2013-01-31 05:32:00,34.6,24.4,30.23,NW,326,0.0,0.0,66,0.00,,,0.00,Wunderground v.1.15,2013-01-31 11:32:00,
2013-01-31 05:38:00,35.0,24.4,30.22,NW,326,0.0,0.0,65,0.00,,,0.00,Wunderground v.1.15,2013-01-31 11:38:00,
2013-01-31 05:44:00,35.1,24.1,30.22,NW,326,0.0,0.0,64,0.00,,,0.00,Wunderground v.1.15,2013-01-31 11:44:00,
2013-01-31 05:50:00,34.8,23.5,30.23,NW,326,0.0,0.0,63,0.00,,,0.00,Wunderground v.1.15,2013-01-31 11:50:00,
2013-01-31 05:56:00,35.0,23.3,30.23,NW,326,0.0,0.0,62,0.00,,,0.00,Wunderground v.1.15,2013-01-31 11:56:00,
2013-01-31 06:02:00,35.1,23.8,30.24,NW,326,0.0,0.0,63,0.00,,,0.00,Wunderground v.1.15,2013-01-31 12:02:00,
2013-01-31 06:08:00,35.5,23.0,30.24,NW,326,0.0,0.0,60,0.00,,,0.00,Wunderground v.1.15,2013-01-31 12:08:00,
2013-01-31 06:14:00,35.7,23.2,30.24,NW,326,0.0,0.0,60,0.00,,,0.00,Wunderground v.1.15,2013-01-31 12:14:00,
2013-01-31 06:20:00,35.8,23.3,30.25,NW,326,0.0,0.0,60,0.00,,,0.00,Wunderground v.1.15,2013-01-31 12:20:00,
2013-01-31 06:26:00,36.4,23.0,30.25,NW,319,0.0,1.0,58,0.00,,,0.00,Wunderground v.1.15,2013-01-31 12:26:00,
2013-01-31 06:32:00,36.8,22.6,30.25,NW,319,0.0,1.0,56,0.00,,,0.00,Wunderground v.1.15,2013-01-31 12:32:00,
2013-01-31 06:38:00,36.7,22.0,30.25,NW,319,0.0,1.0,55,0.00,,,0.00,Wunderground v.1.15,2013-01-31 12:38:00,
2013-01-31 06:44:00,36.9,22.2,30.25,NW,319,0.0,0.0,55,0.00,,,0.00,Wunderground v.1.15,2013-01-31 12:44:00,
2013-01-31 06:50:00,36.7,22.0,30.25,NW,319,0.0,0.0,55,0.00,,,0.00,Wunderground v.1.15,2013-01-31 12:50:00,
2013-01-31 06:56:00,37.0,21.9,30.25,NW,319,0.0,0.0,54,0.00,,,0.00,Wunderground v.1.15,2013-01-31 12:56:00,
2013-01-31 07:02:00,37.6,22.0,30.26,NW,326,0.0,3.0,53,0.00,,,0.00,Wunderground v.1.15,2013-01-31 13:02:00,
2013-01-31 07:08:00,37.5,22.3,30.26,NW,326,0.0,3.0,54,0.00,,,0.00,Wunderground v.1.15,2013-01-31 13:08:00,
2013-01-31 07:14:00,36.7,22.5,30.26,NW,326,0.0,3.0,56,0.00,,,0.00,Wunderground v.1.15,2013-01-31 13:14:00,
2013-01-31 07:20:00,36.2,22.4,30.26,NW,326,0.0,3.0,57,0.00,,,0.00,Wunderground v.1.15,2013-01-31 13:20:00,
2013-01-31 07:26:00,35.8,23.3,30.26,NW,326,0.0,3.0,60,0.00,,,0.00,Wunderground v.1.15,2013-01-31 13:26:00,
2013-01-31 07:32:00,35.6,22.3,30.26,NW,326,0.0,3.0,58,0.00,,,0.00,Wunderground v.1.15,2013-01-31 13:32:00,
2013-01-31 07:38:00,36.4,21.8,30.26,NW,323,0.0,3.0,55,0.00,,,0.00,Wunderground v.1.15,2013-01-31 13:38:00,
2013-01-31 07:44:00,37.4,21.8,30.27,NW,323,0.0,3.0,53,0.00,,,0.00,Wunderground v.1.15,2013-01-31 13:44:00,
2013-01-31 07:50:00,37.8,22.2,30.27,NW,323,0.0,3.0,53,0.00,,,0.00,Wunderground v.1.15,2013-01-31 13:50:00,
2013-01-31 07:56:00,38.0,22.4,30.27,NW,323,0.0,3.0,53,0.00,,,0.00,Wunderground v.1.15,2013-01-31 13:56:00,
2013-01-31 08:02:00,38.3,22.2,30.28,NW,323,0.0,3.0,52,0.00,,,0.00,Wunderground v.1.15,2013-01-31 14:02:00,
2013-01-31 08:08:00,38.8,23.1,30.28,NW,323,0.0,3.0,53,0.00,,,0.00,Wunderground v.1.15,2013-01-31 14:08:00,
2013-01-31 08:14:00,39.6,24.7,30.28,NW,323,0.0,1.0,55,0.00,,,0.00,Wunderground v.1.15,2013-01-31 14:14:00,
2013-01-31 08:20:00,40.4,23.2,30.28,NW,316,0.0,1.0,50,0.00,,,0.00,Wunderground v.1.15,2013-01-31 14:20:00,
2013-01-31 08:26:00,41.3,23.1,30.28,West,260,0.0,1.0,48,0.00,,,0.00,Wunderground v.1.15,2013-01-31 14:26:00,
2013-01-31 08:32:00,42.3,23.5,30.28,WSW,257,0.0,1.0,47,0.00,,,0.00,Wunderground v.1.15,2013-01-31 14:32:00,
2013-01-31 08:38:00,43.4,24.0,30.29,West,269,1.0,1.0,46,0.00,,,0.00,Wunderground v.1.15,2013-01-31 14:38:00,
2013-01-31 08:44:00,44.5,23.4,30.29,WSW,249,1.0,1.0,43,0.00,,,0.00,Wunderground v.1.15,2013-01-31 14:44:00,
2013-01-31 08:50:00,45.4,23.0,30.29,West,274,1.0,2.0,41,0.00,,,0.00,Wunderground v.1.15,2013-01-31 14:50:00,
2013-01-31 08:56:00,46.1,23.1,30.30,West,271,2.0,3.0,40,0.00,,,0.00,Wunderground v.1.15,2013-01-31 14:56:00,
2013-01-31 09:02:00,46.8,23.1,30.30,West,278,2.0,4.0,39,0.00,,,0.00,Wunderground v.1.15,2013-01-31 15:02:00,
2013-01-31 09:08:00,47.4,23.0,30.30,West,260,2.0,5.0,38,0.00,,,0.00,Wunderground v.1.15,2013-01-31 15:08:00,
2013-01-31 09:14:00,47.9,22.8,30.30,WNW,300,2.0,4.0,37,0.00,,,0.00,Wunderground v.1.15,2013-01-31 15:14:00,
2013-01-31 09:20:00,48.5,22.1,30.30,West,271,3.0,3.0,35,0.00,,,0.00,Wunderground v.1.15,2013-01-31 15:20:00,
2013-01-31 09:26:00,49.4,22.2,30.30,West,266,3.0,4.0,34,0.00,,,0.00,Wunderground v.1.15,2013-01-31 15:26:00,
2013-01-31 09:32:00,50.2,21.4,30.30,West,269,3.0,4.0,32,0.00,,,0.00,Wunderground v.1.15,2013-01-31 15:32:00,
2013-01-31 09:38:00,51.0,20.6,30.30,WSW,250,3.0,6.0,30,0.00,,,0.00,Wunderground v.1.15,2013-01-31 15:38:00,
2013-01-31 09:44:00,51.5,19.4,30.30,SW,222,5.0,8.0,28,0.00,,,0.00,Wunderground v.1.15,2013-01-31 15:44:00,
2013-01-31 09:50:00,52.0,19.9,30.30,West,263,5.0,5.0,28,0.00,,,0.00,Wunderground v.1.15,2013-01-31 15:50:00,
2013-01-31 09:56:00,52.4,20.2,30.30,West,278,4.0,6.0,28,0.00,,,0.00,Wunderground v.1.15,2013-01-31 15:56:00,
2013-01-31 10:02:00,52.7,19.6,30.30,West,270,6.0,11.0,27,0.00,,,0.00,Wunderground v.1.15,2013-01-31 16:02:00,
2013-01-31 10:08:00,53.3,20.1,30.30,West,269,5.0,11.0,27,0.00,,,0.00,Wunderground v.1.15,2013-01-31 16:08:00,
2013-01-31 10:14:00,54.1,19.9,30.31,WSW,249,5.0,11.0,26,0.00,,,0.00,Wunderground v.1.15,2013-01-31 16:14:00,
2013-01-31 10:20:00,54.4,20.2,30.31,WSW,257,6.0,11.0,26,0.00,,,0.00,Wunderground v.1.15,2013-01-31 16:20:00,
2013-01-31 10:26:00,54.6,20.4,30.31,WSW,248,5.0,11.0,26,0.00,,,0.00,Wunderground v.1.15,2013-01-31 16:26:00,
2013-01-31 10:32:00,54.7,19.5,30.31,West,274,4.0,6.0,25,0.00,,,0.00,Wunderground v.1.15,2013-01-31 16:32:00,
2013-01-31 10:38:00,54.8,19.6,30.32,WSW,257,4.0,11.0,25,0.00,,,0.00,Wunderground v.1.15,2013-01-31 16:38:00,
2013-01-31 10:44:00,55.3,20.0,30.32,West,259,4.0,11.0,25,0.00,,,0.00,Wunderground v.1.15,2013-01-31 16:44:00,
2013-01-31 10:50:00,56.0,19.7,30.32,West,273,4.0,11.0,24,0.00,,,0.00,Wunderground v.1.15,2013-01-31 16:50:00,
2013-01-31 10:56:00,56.5,19.1,30.32,WSW,248,6.0,11.0,23,0.00,,,0.00,Wunderground v.1.15,2013-01-31 16:56:00,
2013-01-31 11:02:00,56.6,20.2,30.32,WSW,257,7.0,14.0,24,0.00,,,0.00,Wunderground v.1.15,2013-01-31 17:02:00,
2013-01-31 11:08:00,57.0,20.5,30.32,West,271,6.0,14.0,24,0.00,,,0.00,Wunderground v.1.15,2013-01-31 17:08:00,
2013-01-31 11:14:00,57.6,20.0,30.32,West,271,6.0,14.0,23,0.00,,,0.00,Wunderground v.1.15,2013-01-31 17:14:00,
2013-01-31 11:20:00,57.9,19.2,30.32,SW,236,7.0,14.0,22,0.00,,,0.00,Wunderground v.1.15,2013-01-31 17:20:00,
2013-01-31 11:26:00,58.3,20.6,30.32,WSW,242,6.0,14.0,23,0.00,,,0.00,Wunderground v.1.15,2013-01-31 17:26:00,
2013-01-31 11:32:00,58.2,19.5,30.31,WNW,290,5.0,14.0,22,0.00,,,0.00,Wunderground v.1.15,2013-01-31 17:32:00,
2013-01-31 11:38:00,57.8,20.2,30.32,WSW,246,6.0,14.0,23,0.00,,,0.00,Wunderground v.1.15,2013-01-31 17:38:00,
2013-01-31 11:44:00,57.6,20.0,30.31,WSW,240,6.0,8.0,23,0.00,,,0.00,Wunderground v.1.15,2013-01-31 17:44:00,
2013-01-31 11:50:00,58.0,20.4,30.30,West,271,6.0,14.0,23,0.00,,,0.00,Wunderground v.1.15,2013-01-31 17:50:00,
2013-01-31 11:56:00,58.1,20.4,30.30,SW,232,5.0,14.0,23,0.00,,,0.00,Wunderground v.1.15,2013-01-31 17:56:00,
2013-01-31 12:02:00,58.8,21.0,30.30,WSW,257,4.0,14.0,23,0.00,,,0.00,Wunderground v.1.15,2013-01-31 18:02:00,
2013-01-31 12:08:00,59.4,21.5,30.30,WSW,243,4.0,14.0,23,0.00,,,0.00,Wunderground v.1.15,2013-01-31 18:08:00,
2013-01-31 12:14:00,59.6,20.7,30.29,West,281,5.0,14.0,22,0.00,,,0.00,Wunderground v.1.15,2013-01-31 18:14:00,
2013-01-31 12:20:00,60.1,22.1,30.29,West,263,4.0,4.0,23,0.00,,,0.00,Wunderground v.1.15,2013-01-31 18:20:00,
2013-01-31 12:26:00,60.3,21.2,30.29,West,263,4.0,14.0,22,0.00,,,0.00,Wunderground v.1.15,2013-01-31 18:26:00,
2013-01-31 12:32:00,60.5,20.3,30.29,SW,235,5.0,14.0,21,0.00,,,0.00,Wunderground v.1.15,2013-01-31 18:32:00,
2013-01-31 12:38:00,60.7,20.5,30.28,West,278,5.0,14.0,21,0.00,,,0.00,Wunderground v.1.15,2013-01-31 18:38:00,
2013-01-31 12:44:00,61.3,21.0,30.28,WSW,248,5.0,14.0,21,0.00,,,0.00,Wunderground v.1.15,2013-01-31 18:44:00,
2013-01-31 12:50:00,61.7,20.2,30.27,SW,235,5.0,14.0,20,0.00,,,0.00,Wunderground v.1.15,2013-01-31 18:50:00,
2013-01-31 12:56:00,62.2,20.6,30.27,West,274,5.0,14.0,20,0.00,,,0.00,Wunderground v.1.15,2013-01-31 18:56:00,
2013-01-31 13:02:00,62.6,19.7,30.26,West,267,5.0,14.0,19,0.00,,,0.00,Wunderground v.1.15,2013-01-31 19:02:00,
2013-01-31 13:08:00,62.7,19.8,30.26,WSW,255,6.0,14.0,19,0.00,,,0.00,Wunderground v.1.15,2013-01-31 19:08:00,
2013-01-31 13:14:00,62.9,20.0,30.26,West,266,5.0,13.0,19,0.00,,,0.00,Wunderground v.1.15,2013-01-31 19:14:00,
2013-01-31 13:20:00,63.0,20.0,30.25,SW,226,5.0,13.0,19,0.00,,,0.00,Wunderground v.1.15,2013-01-31 19:20:00,
2013-01-31 13:26:00,63.7,20.6,30.24,WSW,256,5.0,13.0,19,0.00,,,0.00,Wunderground v.1.15,2013-01-31 19:26:00,
2013-01-31 13:32:00,63.4,19.1,30.24,West,269,5.0,13.0,18,0.00,,,0.00,Wunderground v.1.15,2013-01-31 19:32:00,
2013-01-31 13:38:00,64.2,21.0,30.23,West,259,4.0,13.0,19,0.00,,,0.00,Wunderground v.1.15,2013-01-31 19:38:00,
2013-01-31 13:44:00,64.4,21.2,30.22,WSW,243,4.0,13.0,19,0.00,,,0.00,Wunderground v.1.15,2013-01-31 19:44:00,
2013-01-31 13:50:00,64.1,20.9,30.22,West,271,5.0,5.0,19,0.00,,,0.00,Wunderground v.1.15,2013-01-31 19:50:00,
2013-01-31 13:56:00,64.1,19.7,30.22,WNW,288,6.0,13.0,18,0.00,,,0.00,Wunderground v.1.15,2013-01-31 19:56:00,
2013-01-31 14:02:00,64.2,19.8,30.22,West,269,7.0,15.0,18,0.00,,,0.00,Wunderground v.1.15,2013-01-31 20:02:00,
2013-01-31 14:08:00,64.2,21.0,30.21,WSW,245,6.0,15.0,19,0.00,,,0.00,Wunderground v.1.15,2013-01-31 20:08:00,
2013-01-31 14:14:00,64.8,20.2,30.20,WSW,246,5.0,15.0,18,0.00,,,0.00,Wunderground v.1.15,2013-01-31 20:14:00,
2013-01-31 14:20:00,65.1,20.5,30.20,SW,232,4.0,4.0,18,0.00,,,0.00,Wunderground v.1.15,2013-01-31 20:20:00,
2013-01-31 14:26:00,65.4,20.7,30.20,WSW,249,4.0,15.0,18,0.00,,,0.00,Wunderground v.1.15,2013-01-31 20:26:00,
2013-01-31 14:32:00,65.4,19.4,30.20,WSW,248,6.0,15.0,17,0.00,,,0.00,Wunderground v.1.15,2013-01-31 20:32:00,
2013-01-31 14:38:00,65.3,19.3,30.19,SW,236,5.0,15.0,17,0.00,,,0.00,Wunderground v.1.15,2013-01-31 20:38:00,
2013-01-31 14:44:00,65.3,19.3,30.20,WSW,253,6.0,15.0,17,0.00,,,0.00,Wunderground v.1.15,2013-01-31 20:44:00,
2013-01-31 14:50:00,65.8,19.7,30.20,WSW,248,5.0,15.0,17,0.00,,,0.00,Wunderground v.1.15,2013-01-31 20:50:00,
2013-01-31 14:56:00,66.3,20.1,30.20,WNW,283,5.0,15.0,17,0.00,,,0.00,Wunderground v.1.15,2013-01-31 20:56:00,
2013-01-31 15:02:00,65.8,19.7,30.20,SW,228,5.0,15.0,17,0.00,,,0.00,Wunderground v.1.15,2013-01-31 21:02:00,
2013-01-31 15:08:00,65.9,21.2,30.19,West,270,5.0,15.0,18,0.00,,,0.00,Wunderground v.1.15,2013-01-31 21:08:00,
2013-01-31 15:14:00,66.0,21.2,30.19,West,267,5.0,13.0,18,0.00,,,0.00,Wunderground v.1.15,2013-01-31 21:14:00,
2013-01-31 15:20:00,65.9,21.2,30.19,SW,235,5.0,5.0,18,0.00,,,0.00,Wunderground v.1.15,2013-01-31 21:20:00,
2013-01-31 15:26:00,66.6,21.7,30.19,West,278,4.0,13.0,18,0.00,,,0.00,Wunderground v.1.15,2013-01-31 21:26:00,
2013-01-31 15:32:00,66.7,20.5,30.19,WSW,246,5.0,7.0,17,0.00,,,0.00,Wunderground v.1.15,2013-01-31 21:32:00,
2013-01-31 15:38:00,66.9,20.6,30.19,West,267,6.0,13.0,17,0.00,,,0.00,Wunderground v.1.15,2013-01-31 21:38:00,
2013-01-31 15:44:00,66.7,20.5,30.18,WSW,243,4.0,13.0,17,0.00,,,0.00,Wunderground v.1.15,2013-01-31 21:44:00,
2013-01-31 15:50:00,67.1,20.8,30.18,WSW,253,4.0,13.0,17,0.00,,,0.00,Wunderground v.1.15,2013-01-31 21:50:00,
2013-01-31 15:56:00,67.0,20.7,30.18,WSW,245,5.0,13.0,17,0.00,,,0.00,Wunderground v.1.15,2013-01-31 21:56:00,
2013-01-31 16:02:00,66.8,20.5,30.18,SW,231,4.0,13.0,17,0.00,,,0.00,Wunderground v.1.15,2013-01-31 22:02:00,
2013-01-31 16:08:00,67.3,20.9,30.18,West,271,4.0,13.0,17,0.00,,,0.00,Wunderground v.1.15,2013-01-31 22:08:00,
2013-01-31 16:14:00,67.2,20.9,30.19,West,276,5.0,12.0,17,0.00,,,0.00,Wunderground v.1.15,2013-01-31 22:14:00,
2013-01-31 16:20:00,67.3,20.9,30.19,West,271,5.0,5.0,17,0.00,,,0.00,Wunderground v.1.15,2013-01-31 22:20:00,
2013-01-31 16:26:00,66.8,20.5,30.19,WSW,252,4.0,12.0,17,0.00,,,0.00,Wunderground v.1.15,2013-01-31 22:26:00,
2013-01-31 16:32:00,66.3,20.1,30.19,West,270,4.0,12.0,17,0.00,,,0.00,Wunderground v.1.15,2013-01-31 22:32:00,
2013-01-31 16:38:00,66.2,21.4,30.18,WNW,294,4.0,12.0,18,0.00,,,0.00,Wunderground v.1.15,2013-01-31 22:38:00,
2013-01-31 16:44:00,66.0,22.5,30.19,West,271,2.0,12.0,19,0.00,,,0.00,Wunderground v.1.15,2013-01-31 22:44:00,
2013-01-31 16:50:00,66.0,21.2,30.19,WSW,249,2.0,12.0,18,0.00,,,0.00,Wunderground v.1.15,2013-01-31 22:50:00,
2013-01-31 16:56:00,65.8,22.3,30.18,West,267,3.0,12.0,19,0.00,,,0.00,Wunderground v.1.15,2013-01-31 22:56:00,
2013-01-31 17:02:00,65.5,22.1,30.19,WSW,248,3.0,12.0,19,0.00,,,0.00,Wunderground v.1.15,2013-01-31 23:02:00,
2013-01-31 17:08:00,65.3,20.7,30.18,WSW,252,3.0,12.0,18,0.00,,,0.00,Wunderground v.1.15,2013-01-31 23:08:00,
2013-01-31 17:14:00,65.2,20.6,30.18,WSW,244,4.0,8.0,18,0.00,,,0.00,Wunderground v.1.15,2013-01-31 23:14:00,
2013-01-31 17:20:00,65.0,21.7,30.18,SW,236,4.0,4.0,19,0.00,,,0.00,Wunderground v.1.15,2013-01-31 23:20:00,
2013-01-31 17:26:00,64.7,21.4,30.18,WSW,241,3.0,8.0,19,0.00,,,0.00,Wunderground v.1.15,2013-01-31 23:26:00,
2013-01-31 17:32:00,64.4,21.2,30.18,WSW,243,3.0,8.0,19,0.00,,,0.00,Wunderground v.1.15,2013-01-31 23:32:00,
2013-01-31 17:38:00,64.0,20.9,30.18,WSW,252,3.0,8.0,19,0.00,,,0.00,Wunderground v.1.15,2013-01-31 23:38:00,
2013-01-31 17:44:00,63.6,21.7,30.18,WSW,246,2.0,8.0,20,0.00,,,0.00,Wunderground v.1.15,2013-01-31 23:44:00,
2013-01-31 17:50:00,63.2,21.4,30.18,WSW,242,2.0,2.0,20,0.00,,,0.00,Wunderground v.1.15,2013-01-31 23:50:00,
2013-01-31 17:56:00,63.0,21.2,30.18,WSW,245,1.0,8.0,20,0.00,,,0.00,Wunderground v.1.15,2013-01-31 23:56:00,
2013-01-31 18:02:00,62.7,21.0,30.18,SW,233,2.0,8.0,20,0.00,,,0.00,Wunderground v.1.15,2013-02-01 00:02:00,
2013-01-31 18:08:00,62.3,21.8,30.18,SSW,201,1.0,8.0,21,0.00,,,0.00,Wunderground v.1.15,2013-02-01 00:08:00,
2013-01-31 18:14:00,61.8,22.5,30.17,SSE,155,1.0,5.0,22,0.00,,,0.00,Wunderground v.1.15,2013-02-01 00:14:00,
2013-01-31 18:20:00,61.2,22.0,30.18,SSE,150,1.0,5.0,22,0.00,,,0.00,Wunderground v.1.15,2013-02-01 00:20:00,
2013-01-31 18:26:00,60.8,22.7,30.18,South,191,1.0,5.0,23,0.00,,,0.00,Wunderground v.1.15,2013-02-01 00:26:00,
2013-01-31 18:32:00,60.5,22.5,30.18,South,171,2.0,5.0,23,0.00,,,0.00,Wunderground v.1.15,2013-02-01 00:32:00,
2013-01-31 18:38:00,60.1,22.1,30.19,SSE,168,1.0,5.0,23,0.00,,,0.00,Wunderground v.1.15,2013-02-01 00:38:00,
2013-01-31 18:44:00,59.9,22.0,30.20,SW,224,1.0,5.0,23,0.00,,,0.00,Wunderground v.1.15,2013-02-01 00:44:00,
2013-01-31 18:50:00,59.7,21.8,30.20,SW,224,1.0,1.0,23,0.00,,,0.00,Wunderground v.1.15,2013-02-01 00:50:00,
2013-01-31 18:56:00,58.9,22.1,30.20,SW,224,0.0,5.0,24,0.00,,,0.00,Wunderground v.1.15,2013-02-01 00:56:00,
2013-01-31 19:02:00,58.3,22.6,30.21,SW,224,0.0,5.0,25,0.00,,,0.00,Wunderground v.1.15,2013-02-01 01:02:00,
2013-01-31 19:08:00,57.9,23.2,30.21,SW,224,0.0,5.0,26,0.00,,,0.00,Wunderground v.1.15,2013-02-01 01:08:00,
2013-01-31 19:14:00,57.4,23.7,30.21,SW,224,0.0,2.0,27,0.00,,,0.00,Wunderground v.1.15,2013-02-01 01:14:00,
2013-01-31 19:20:00,56.8,24.0,30.21,SW,224,0.0,2.0,28,0.00,,,0.00,Wunderground v.1.15,2013-02-01 01:20:00,
2013-01-31 19:26:00,56.5,23.7,30.22,SW,224,0.0,2.0,28,0.00,,,0.00,Wunderground v.1.15,2013-02-01 01:26:00,
2013-01-31 19:32:00,56.5,23.7,30.23,SW,224,0.0,2.0,28,0.00,,,0.00,Wunderground v.1.15,2013-02-01 01:32:00,
2013-01-31 19:38:00,55.9,24.9,30.23,SW,224,0.0,2.0,30,0.00,,,0.00,Wunderground v.1.15,2013-02-01 01:38:00,
2013-01-31 19:44:00,55.2,24.3,30.24,SW,224,0.0,2.0,30,0.00,,,0.00,Wunderground v.1.15,2013-02-01 01:44:00,
2013-01-31 19:50:00,54.9,25.6,30.23,SW,224,0.0,2.0,32,0.00,,,0.00,Wunderground v.1.15,2013-02-01 01:50:00,
2013-01-31 19:56:00,54.4,25.1,30.23,SW,224,1.0,2.0,32,0.00,,,0.00,Wunderground v.1.15,2013-02-01 01:56:00,
2013-01-31 20:02:00,53.1,25.4,30.24,ESE,114,1.0,4.0,34,0.00,,,0.00,Wunderground v.1.15,2013-02-01 02:02:00,
2013-01-31 20:08:00,53.6,24.4,30.24,ESE,114,0.0,4.0,32,0.00,,,0.00,Wunderground v.1.15,2013-02-01 02:08:00,
2013-01-31 20:14:00,53.7,24.5,30.24,ESE,114,0.0,4.0,32,0.00,,,0.00,Wunderground v.1.15,2013-02-01 02:14:00,
2013-01-31 20:20:00,53.9,23.1,30.25,ESE,114,0.0,4.0,30,0.00,,,0.00,Wunderground v.1.15,2013-02-01 02:20:00,
2013-01-31 20:26:00,54.5,23.7,30.25,ESE,114,0.0,4.0,30,0.00,,,0.00,Wunderground v.1.15,2013-02-01 02:26:00,
2013-01-31 20:32:00,54.5,22.9,30.25,ESE,114,0.0,4.0,29,0.00,,,0.00,Wunderground v.1.15,2013-02-01 02:32:00,
2013-01-31 20:38:00,54.6,23.7,30.25,ESE,115,0.0,4.0,30,0.00,,,0.00,Wunderground v.1.15,2013-02-01 02:38:00,
2013-01-31 20:44:00,54.6,23.7,30.25,ESE,114,0.0,4.0,30,0.00,,,0.00,Wunderground v.1.15,2013-02-01 02:44:00,
2013-01-31 20:50:00,54.6,23.7,30.25,ESE,116,0.0,4.0,30,0.00,,,0.00,Wunderground v.1.15,2013-02-01 02:50:00,
2013-01-31 20:56:00,54.5,22.9,30.25,ESE,115,0.0,4.0,29,0.00,,,0.00,Wunderground v.1.15,2013-02-01 02:56:00,
2013-01-31 21:02:00,54.8,23.1,30.25,ESE,114,0.0,4.0,29,0.00,,,0.00,Wunderground v.1.15,2013-02-01 03:02:00,
2013-01-31 21:08:00,55.0,24.1,30.25,ESE,114,0.0,4.0,30,0.00,,,0.00,Wunderground v.1.15,2013-02-01 03:08:00,
2013-01-31 21:14:00,54.1,24.1,30.25,ESE,114,0.0,1.0,31,0.00,,,0.00,Wunderground v.1.15,2013-02-01 03:14:00,
2013-01-31 21:20:00,53.1,24.7,30.26,ESE,114,0.0,1.0,33,0.00,,,0.00,Wunderground v.1.15,2013-02-01 03:20:00,
2013-01-31 21:26:00,52.1,25.3,30.26,ESE,114,0.0,1.0,35,0.00,,,0.00,Wunderground v.1.15,2013-02-01 03:26:00,
2013-01-31 21:32:00,51.1,26.3,30.25,ESE,114,0.0,1.0,38,0.00,,,0.00,Wunderground v.1.15,2013-02-01 03:32:00,
2013-01-31 21:38:00,50.4,25.1,30.25,ESE,114,1.0,1.0,37,0.00,,,0.00,Wunderground v.1.15,2013-02-01 03:38:00,
2013-01-31 21:44:00,51.2,23.8,30.25,ESE,114,0.0,1.0,34,0.00,,,0.00,Wunderground v.1.15,2013-02-01 03:44:00,
2013-01-31 21:50:00,51.9,23.7,30.26,ESE,114,0.0,1.0,33,0.00,,,0.00,Wunderground v.1.15,2013-02-01 03:50:00,
2013-01-31 21:56:00,51.7,25.6,30.26,ESE,116,0.0,1.0,36,0.00,,,0.00,Wunderground v.1.15,2013-02-01 03:56:00,
2013-01-31 22:02:00,50.8,25.4,30.27,SSE,153,1.0,4.0,37,0.00,,,0.00,Wunderground v.1.15,2013-02-01 04:02:00,
2013-01-31 22:08:00,51.4,25.3,30.27,SE,139,3.0,4.0,36,0.00,,,0.00,Wunderground v.1.15,2013-02-01 04:08:00,
2013-01-31 22:14:00,52.2,25.3,30.27,SSE,150,3.0,4.0,35,0.00,,,0.00,Wunderground v.1.15,2013-02-01 04:14:00,
2013-01-31 22:20:00,52.3,25.4,30.27,SE,144,2.0,4.0,35,0.00,,,0.00,Wunderground v.1.15,2013-02-01 04:20:00,
2013-01-31 22:26:00,51.9,25.8,30.28,ESE,117,1.0,4.0,36,0.00,,,0.00,Wunderground v.1.15,2013-02-01 04:26:00,
2013-01-31 22:32:00,51.6,26.8,30.28,SSE,158,1.0,4.0,38,0.00,,,0.00,Wunderground v.1.15,2013-02-01 04:32:00,
2013-01-31 22:38:00,52.1,29.1,30.28,SSE,150,2.0,4.0,41,0.00,,,0.00,Wunderground v.1.15,2013-02-01 04:38:00,
2013-01-31 22:44:00,52.2,29.2,30.28,SSE,151,2.0,4.0,41,0.00,,,0.00,Wunderground v.1.15,2013-02-01 04:44:00,
2013-01-31 22:50:00,52.2,29.8,30.27,SSW,201,2.0,2.0,42,0.00,,,0.00,Wunderground v.1.15,2013-02-01 04:50:00,
2013-01-31 22:56:00,52.2,30.9,30.28,SSE,153,2.0,4.0,44,0.00,,,0.00,Wunderground v.1.15,2013-02-01 04:56:00,
2013-01-31 23:00:00,52.2,30.9,30.28,SSE,166,1.0,4.0,44,0.00,,,0.00,Wunderground v.1.15,2013-02-01 05:00:00,
2013-01-31 23:04:00,52.1,31.4,30.28,SSW,211,1.0,5.0,45,0.00,,,0.00,Wunderground v.1.15,2013-02-01 05:04:00,
2013-01-31 23:08:00,52.1,31.4,30.28,SSE,167,1.0,5.0,45,0.00,,,0.00,Wunderground v.1.15,2013-02-01 05:08:00,
2013-01-31 23:10:00,52.1,31.9,30.28,SSE,153,1.0,5.0,46,0.00,,,0.00,Wunderground v.1.15,2013-02-01 05:10:00,
2013-01-31 23:16:00,52.0,32.4,30.27,SSW,195,2.0,5.0,47,0.00,,,0.00,Wunderground v.1.15,2013-02-01 05:16:00,
2013-01-31 23:22:00,51.9,32.8,30.27,SSE,148,1.0,5.0,48,0.00,,,0.00,Wunderground v.1.15,2013-02-01 05:22:00,
2013-01-31 23:28:00,51.7,33.1,30.27,SE,146,1.0,5.0,49,0.00,,,0.00,Wunderground v.1.15,2013-02-01 05:28:00,
2013-01-31 23:34:00,51.6,33.6,30.27,SE,139,1.0,5.0,50,0.00,,,0.00,Wunderground v.1.15,2013-02-01 05:34:00,
2013-01-31 23:40:00,51.5,34.0,30.27,SE,139,2.0,2.0,51,0.00,,,0.00,Wunderground v.1.15,2013-02-01 05:40:00,
2013-01-31 23:46:00,51.4,33.9,30.27,SSE,151,1.0,5.0,51,0.00,,,0.00,Wunderground v.1.15,2013-02-01 05:46:00,
2013-01-31 23:52:00,51.3,34.3,30.27,SSE,155,1.0,5.0,52,0.00,,,0.00,Wunderground v.1.15,2013-02-01 05:52:00,
2013-01-31 23:58:00,51.2,34.6,30.27,SSE,150,1.0,5.0,53,0.00,,,0.00,Wunderground v.1.15,2013-02-01 05:58:00,